This is the latest recevied weather packets stored in our database for station/object KB3KAV. If no packets are shown the sender has not sent any weather packets the latest 10 day(s).
| Time | Temp. | Humidity | Pressure | Rain* | Wind** | Luminosity | Snow |
|---|---|---|---|---|---|---|---|
| 1787798184 | 16.11° C | 95% | 1046.1 hPa | 0 mm | - | 0 W/m² | - |
| 1787797584 | 16.67° C | 95% | 1046 hPa | 0 mm | - | 0 W/m² | - |
| 1787796980 | 16.67° C | 95% | 1046 hPa | 0 mm | - | 0 W/m² | - |
| 1787796375 | 16.67° C | 95% | 1046.1 hPa | 0 mm | - | 0 W/m² | - |
| 1787795774 | 16.67° C | 95% | 1046.1 hPa | 0 mm | - | 0 W/m² | - |
| 1787795173 | 16.67° C | 95% | 1045.9 hPa | 0 mm | - | 0 W/m² | - |
| 1787794568 | 16.67° C | 95% | 1046.1 hPa | 0 mm | - | 0 W/m² | - |
| 1787793965 | 17.22° C | 95% | 1046 hPa | 0 mm | - | 0 W/m² | - |
| 1787793361 | 17.22° C | 95% | 1045.7 hPa | 0 mm | - | 0 W/m² | - |
| 1787792757 | 17.22° C | 95% | 1045.9 hPa | 0 mm | - | 0 W/m² | - |
| 1787792154 | 17.22° C | 95% | 1045.8 hPa | 0 mm | - | 0 W/m² | - |
| 1787791553 | 17.78° C | 95% | 1045.9 hPa | 0 mm | - | 0 W/m² | - |
| 1787790950 | 17.78° C | 94% | 1045.7 hPa | 0 mm | - | 0 W/m² | - |
| 1787790346 | 18.33° C | 94% | 1045.3 hPa | 0 mm | - | 0 W/m² | - |
| 1787789743 | 18.33° C | 94% | 1045.4 hPa | 0 mm | - | 0 W/m² | - |
| 1787789143 | 18.89° C | 94% | 1045.2 hPa | 0 mm | - | 0 W/m² | - |
| 1787788541 | 19.44° C | 93% | 1045.5 hPa | 0 mm | - | 0 W/m² | - |
| 1787787938 | 20° C | 91% | 1045.3 hPa | 0 mm | - | 2 W/m² | - |
| 1787787337 | 20.56° C | 90% | 1045.7 hPa | 0 mm | - | 5 W/m² | - |
| 1787786737 | 20.56° C | 89% | 1045.8 hPa | 0 mm | - | 10 W/m² | - |
| 1787786133 | 21.11° C | 88% | 1045.5 hPa | 0 mm | - | 18 W/m² | - |
| 1787785530 | 21.11° C | 86% | 1045.5 hPa | 0 mm | - | 26 W/m² | - |
| 1787784931 | 21.67° C | 84% | 1045.4 hPa | 0 mm | - | 53 W/m² | - |
| 1787784328 | 21.67° C | 83% | 1045.7 hPa | 0 mm | - | 50 W/m² | - |
| 1787783726 | 22.22° C | 83% | 1045.7 hPa | 0 mm | - | 71 W/m² | - |
* Rain latest hour (hover to see other rain measurements)
** Current wind speed in m/s (hover to see current wind gust speed)